Flag for Montenegro

Past Weather in Podgorica, Montenegro — Yesterday and Last 2 Weeks

Now
86 °F

Passing clouds.


Feels Like: 85 °F
Forecast: 87 / 65 °F
Wind: 5 mph from Southwest

Location: Podgorica Titograd
Current Time: Sep 20, 2020 at 5:28:33 pm
Latest Report: Sep 20, 2020 at 5:00 pm
Visibility: N/A
Pressure29.92 "Hg
Humidity: 35%
Dew Point: 55 °F
Location of PodgoricaLocation

Past Weather in Podgorica — Graph

°F

Podgorica Temperature Yesterday

Maximum temperature yesterday: 84 °F (at 12:00 pm)
Minimum temperature yesterday: 72 °F (at 3:00 am)
Average temperature yesterday: 77 °F

High & Low Weather Summary for the Past Weeks

 TemperatureHumidityPressure
High95 °F (Sep 10, 3:30 pm)69% (Sep 10, 5:00 am)30.21 "Hg (Sep 10, 5:00 am)
Low61 °F (Sep 6, 4:30 am)18% (Sep 5, 3:30 pm)29.80 "Hg (Sep 17, 3:30 pm)
Average81 °F39%30.00 "Hg
* Reported Sep 5 3:00 pm — Sep 20 3:30 pm, Podgorica. Weather by CustomWeather, © 2020

Note: Actual official high and low records may vary slightly from our data, if they occured in-between our weather recording intervals... More about our weather records

Podgorica Weather History for the Previous 24 Hours

Scroll right to see more
 ConditionsComfort  
Time TempWeatherWind HumidityBarometerVisibility
3:30 pm
Sun, Sep 20
86 °FPassing clouds.6 mph31%29.92 "HgN/A
3:00 pm88 °FPassing clouds.7 mph29%29.92 "HgN/A
2:30 pm86 °FPassing clouds.3 mph29%29.92 "HgN/A
2:00 pm86 °FPassing clouds.6 mph29%29.95 "HgN/A
1:30 pm86 °FSunny.5 mph29%29.95 "Hg10 mi
1:00 pm84 °FPassing clouds.6 mph33%29.98 "HgN/A
12:30 pm84 °FSunny.3 mph33%29.98 "Hg10 mi
12:00 pm82 °FSunny.2 mph37%29.98 "Hg10 mi
11:30 am82 °FSunny.2 mph37%29.98 "Hg10 mi
11:00 am81 °FSunny.3 mph39%30.01 "Hg10 mi
10:30 am81 °FSunny.2 mph39%30.01 "Hg10 mi
10:00 am77 °FSunny.1 mph42%30.01 "Hg10 mi
9:30 am75 °FPassing clouds.3 mph44%30.01 "HgN/A
9:00 am73 °FPassing clouds.5 mph47%30.01 "HgN/A
8:30 am72 °FSunny.6 mph53%30.01 "Hg10 mi
8:00 am72 °FSunny.1 mph53%30.01 "Hg10 mi
7:30 am66 °FSunny.2 mph60%30.01 "Hg10 mi
7:00 am66 °FSunny.1 mph60%30.01 "Hg10 mi
6:30 am66 °FSunny.6 mph60%29.98 "Hg10 mi
6:00 am66 °FClear.1 mph60%29.98 "Hg10 mi
5:30 am68 °FClear.2 mph56%30.01 "Hg10 mi
5:00 am66 °FClear.1 mph64%30.01 "Hg10 mi
4:30 am68 °FClear.2 mph56%30.01 "Hg10 mi
4:00 am68 °FClear.1 mph60%30.01 "Hg10 mi
3:30 am70 °FPassing clouds.3 mph57%30.01 "HgN/A
3:00 am70 °FClear.5 mph57%30.01 "Hg10 mi
2:30 am70 °FClear.1 mph57%30.01 "Hg10 mi
2:00 am70 °FClear.5 mph57%30.01 "Hg10 mi
1:30 am70 °FClear.7 mph57%30.01 "Hg10 mi
1:00 am70 °FClear.6 mph57%30.01 "Hg10 mi
12:30 am70 °FClear.5 mph57%30.01 "Hg10 mi
12:00 am70 °FClear.6 mph57%30.01 "Hg10 mi
11:30 pm
Sat, Sep 19
72 °FClear.6 mph53%30.01 "Hg10 mi
11:00 pm72 °FPassing clouds.3 mph53%30.01 "HgN/A
10:30 pm72 °FClear.5 mph50%30.01 "Hg10 mi
10:00 pm72 °FClear.6 mph53%29.98 "Hg10 mi
9:30 pm73 °FClear.5 mph50%29.98 "Hg10 mi
9:00 pm73 °FClear.3 mph53%29.98 "Hg10 mi
8:30 pm75 °FClear.2 mph50%29.98 "Hg10 mi
8:00 pm75 °FClear.2 mph50%29.98 "Hg10 mi
7:30 pm77 °FPassing clouds.No wind47%29.98 "HgN/A
7:00 pm79 °FPassing clouds.1 mph45%29.98 "HgN/A
6:30 pm79 °FPassing clouds.3 mph42%29.98 "HgN/A
6:00 pm81 °FScattered clouds.2 mph39%29.98 "HgN/A
5:30 pm82 °FScattered clouds.3 mph35%29.98 "HgN/A
5:00 pm82 °FPassing clouds.5 mph32%29.98 "HgN/A
Weather by CustomWeather, © 2020

See weather overview